Location: Holkham
(52.9500°N, 0.8167°E)
Time: 16:34:39
(UTC+00:00)

CENTAUR R/B - Pass Details

Date: 19 May 2025
Orbit: 645 x 1536 km, 63.4° (Epoch: 12 June)

Event Time Altitude Azimuth Distance (km) Brightness Sun altitude
Rises 23:11:18 0° 311° (NW) 4,025 6.6 -16.5°
Reaches altitude 10° 23:13:50 10° 313° (NW) 3,176 5.9 -16.6°
Maximum altitude 23:21:47 83° 42° (NE) 1,406 3.3 -16.7°
Drops below altitude 10° 23:31:04 10° 131° (SE) 3,673 5.1 -16.9°
Enters shadow 23:31:27 - 131° (SE) 3,795 5.1 -16.9°
